Location: Bayshore Village Mobile Home Park
(26.6945°N, 81.8642°W)
Time: 15:07:26
(UTC+00:00)

Cosmos 1766 Rocket - Pass Details

Date: 17 June 2021
Orbit: 604 x 633 km, 82.5° (Epoch: 26 July)

Event Time Altitude Azimuth Distance (km) Brightness Sun altitude
Exits shadow 08:35:17 59° 282° (WNW) 726 3.6 -22.6°
Drops below altitude 10° 08:39:35 10° 357° (N) 2,008 6.7 -21.9°
Sets 08:41:52 0° 1° (N) 2,921 7.7 -21.5°
